Regional Weather Roundup
Issued by NWS Memphis, TN

Home | Current Version | Previous Version | Text Only | Print | Product List | Glossary On
Versions: 1 2 3 4 5 6 7 8 9 10 11 12 13 14 15 16 17 18 19 20 21 22 23 24 25 26 27 28 29 30 31 32 33 34 35 36 37 38 39 40 41 42 43 44 45 46 47 48 49 50
000
ASUS44 KMEG 260410
RWRMEG
MEMPHIS CWA HOURLY WEATHER ROUNDUP
NATIONAL WEATHER SERVICE MEMPHIS TN
1100 PM CDT WED APR 25 2018

...WEST TENNESSEE...

CITY           SKY/WX    TMP DP  RH WIND       PRES   REMARKS
MEMPHIS INTL   LGT RAIN  57  52  83 E10       29.91F
NWS MEMPHIS      N/A     55 N/A N/A MISG        N/A
JACKSON        CLOUDY    55  55 100 W3        29.96F FOG
COVINGTON      CLOUDY    55  54  94 CALM      29.94F
SOMERVILLE       N/A     55  54  94 CALM      29.93F
BOLIVAR        CLOUDY    55  54  94 CALM      29.94F
LEXINGTON      CLOUDY    55  54  94 CALM      29.94F
DYERSBURG      LGT RAIN  56  54  93 CALM      29.96F
UNION CITY     CLOUDY    59  52  77 SW3       29.94F
PARIS          CLOUDY    55  50  82 CALM      29.95S
HUNTINGDON     CLOUDY    55  54  94 CALM      29.94F


...EASTERN ARKANSAS...

CITY           SKY/WX    TMP DP  RH WIND       PRES   REMARKS
JONESBORO      LGT RAIN  55  54  96 N5        29.93F
WEST MEMPHIS   LGT RAIN  57  53  86 SE7       29.89F
BATESVILLE     LGT RAIN  53  52  96 W3        29.96F FOG
NEWPORT        LGT RAIN  54  53  97 N9        29.94F
WALNUT RIDGE   LGT RAIN  55  53  93 N7        29.94F
BLYTHEVILLE    LGT RAIN  57  53  86 CALM      29.94F
SEARCY         LGT RAIN  55  55 100 N3        29.95F
STUTTGART      LGT RAIN  56  54  93 N12       29.94F
PINE BLUFF     RAIN      56  55  97 N7        29.93F FOG
MONTICELLO     RAIN      59  57  93 VRB3      29.91F FOG


...NORTH MISSISSIPPI...

CITY           SKY/WX    TMP DP  RH WIND       PRES   REMARKS
TUPELO         CLOUDY    59  52  77 N7        29.91F
OXFORD         DRIZZLE   55  50  82 E9        29.91F
BATESVILLE       N/A    N/A N/A N/A MISG        N/A
TUNICA         LGT RAIN  55  52  88 E7        29.91F
CLARKSDALE     CLOUDY    59  59 100 CALM      29.92S FOG
CORINTH        DRIZZLE   57  55  94 NW3       29.94F
GREENWOOD      CLOUDY    65  58  78 E9        29.88F
COLUMBUS       CLOUDY    63  57  81 N7        29.89F
GOLDEN TRIANGL MOCLDY    64  56  75 NE6       29.90F


...SOUTHEAST MISSOURI...

CITY           SKY/WX    TMP DP  RH WIND       PRES   REMARKS
KENNETT        CLOUDY    59  52  77 NE6       29.92F
MALDEN         FAIR      59  52  77 NW5       29.95F
WEST PLAINS    CLOUDY    52  49  89 NE7       29.97F
POPLAR BLUFF   CLOUDY    58  51  78 N8        29.93F
CAPE GIRARDEAU MOCLDY    58  53  84 NE10      29.93F


...NORTHWEST ALABAMA...

CITY           SKY/WX    TMP DP  RH WIND       PRES   REMARKS
MUSCLE SHOALS  CLOUDY    61  51  70 CALM      29.94F


...MIDDLE TENNESSEE...

CITY           SKY/WX    TMP DP  RH WIND       PRES   REMARKS
NASHVILLE      CLOUDY    61  52  72 CALM      29.93F
CLARKSVILLE    CLOUDY    60  50  69 W7        29.93S
COLUMBIA       CLOUDY    57  57 100 CALM      29.93F
LEWISBURG      CLOUDY    59  52  77 CALM      29.93S


...WESTERN KENTUCKY...

CITY           SKY/WX    TMP DP  RH WIND       PRES   REMARKS
PADUCAH        LGT RAIN  57  55  93 NE6       29.93F
FORT CAMPBELL  CLOUDY    60  52  75 W12       29.92F


...CENTRAL ARKANSAS...

CITY           SKY/WX    TMP DP  RH WIND       PRES   REMARKS
LITTLE ROCK    LGT RAIN  54  54 100 CALM      29.95F FOG


SKY/WX REPORTED AS FAIR MEANS FEW OR NO CLOUDS BELOW
12 THOUSAND FEET.





USA.gov is the U.S. government's official web portal to all federal, state and local government web resources and services.